CDT,Max TemperatureF,Mean TemperatureF,Min TemperatureF,Max Dew PointF,MeanDew PointF,Min DewpointF,Max Humidity, Mean Humidity, Min Humidity, Max Sea Level PressureIn, Mean Sea Level PressureIn, Min Sea Level PressureIn, Max VisibilityMiles, Mean VisibilityMiles, Min VisibilityMiles, Max Wind SpeedMPH, Mean Wind SpeedMPH, Max Gust SpeedMPH,PrecipitationIn, CloudCover, Events, WindDirDegrees
2010-10-1,60,50,39,46,41,34,87,74,55,30.10,30.06,30.01,10,10,9,13,3,20,0.16,4,,27
2010-10-2,51,45,39,37,33,28,81,66,50,30.35,30.25,30.13,10,10,10,20,11,30,0.11,2,,9
2010-10-3,51,44,37,37,33,28,75,65,50,30.47,30.42,30.38,10,10,10,10,7,,0.00,3,,13
2010-10-4,60,46,32,41,34,27,87,63,36,30.44,30.38,30.30,10,10,7,9,3,,0.00,0,,250
2010-10-5,64,50,35,43,37,30,81,61,37,30.36,30.31,30.24,10,10,9,12,4,,0.00,0,,240
2010-10-6,71,55,39,52,42,34,87,65,43,30.21,30.05,29.94,10,10,5,12,3,,0.00,0,,235
2010-10-7,71,58,46,45,37,34,62,49,28,30.08,30.01,29.97,10,10,10,9,4,16,0.00,0,,292
2010-10-8,78,63,48,48,43,39,76,53,28,29.99,29.92,29.85,10,10,10,10,5,16,0.00,1,,246
2010-10-9,62,55,48,52,47,39,82,69,54,30.08,30.03,29.96,10,10,10,17,8,22,0.00,0,,46
2010-10-10,71,58,44,57,48,39,87,75,56,29.97,29.91,29.83,10,10,6,8,3,,0.00,0,,304
2010-10-11,57,54,50,48,45,41,82,72,55,29.93,29.89,29.86,10,10,10,16,6,18,0.00,4,,52
2010-10-12,64,53,42,52,44,36,82,73,52,29.97,29.94,29.90,10,10,5,10,5,,0.00,2,,93
2010-10-13,62,56,48,52,40,34,77,51,36,30.10,30.06,29.97,10,10,7,14,9,18,0.00,1,,351
2010-10-14,57,46,35,43,34,28,82,63,44,30.08,29.92,29.76,10,10,8,14,4,20,0.02,4,,269
2010-10-15,57,50,42,41,38,36,81,65,44,30.10,30.02,29.85,10,10,8,15,8,24,0.01,3,,2
2010-10-16,66,54,41,45,39,30,82,61,38,30.08,29.97,29.85,10,9,5,16,7,25,0.00,0,,244
2010-10-17,59,48,37,30,27,23,65,43,27,30.11,30.05,30.00,10,10,10,10,4,18,0.00,0,,314
2010-10-18,55,47,39,32,27,23,65,50,29,30.10,30.03,29.94,10,10,10,10,3,,0.00,3,,306
2010-10-19,57,46,35,34,28,21,65,49,33,29.94,29.87,29.79,10,10,10,13,6,20,0.00,0,,268
2010-10-20,59,52,44,36,32,30,62,52,36,29.74,29.59,29.52,10,10,9,17,9,29,0.00,3,,265
2010-10-21,50,44,37,30,26,19,70,55,32,29.96,29.83,29.69,10,10,10,17,6,25,0.00,4,,317
2010-10-22,55,44,33,36,27,21,65,51,36,30.07,30.00,29.92,10,10,9,16,6,22,0.00,1,,246
2010-10-23,50,44,39,45,37,28,87,71,50,29.95,29.91,29.86,10,7,1,10,4,,0.37,5,,354
2010-10-24,59,54,48,55,51,45,94,88,82,29.89,29.73,29.58,7,2,0,12,7,,0.50,8,,99
2010-10-25,59,54,48,54,51,46,93,86,77,29.54,29.49,29.44,9,4,0,8,3,,0.00,7,,211
2010-10-26,62,54,46,55,44,36,88,70,54,29.35,29.07,28.86,10,8,2,37,20,51,0.06,8,,196
2010-10-27,53,48,42,36,29,27,57,48,43,29.39,29.18,29.05,10,10,10,30,22,47,0.00,8,,242
2010-10-28,44,42,39,34,27,21,70,55,45,30.19,29.90,29.50,10,10,10,15,10,30,0.00,6,,307
2010-10-29,44,36,28,27,22,19,69,54,42,30.26,30.18,30.03,10,10,10,12,6,22,0.00,2,,266
2010-10-30,48,42,35,32,28,21,75,59,43,29.97,29.81,29.72,10,10,8,16,5,23,0.00,1,,348
2010-10-31,46,38,30,28,24,19,80,62,49,30.33,30.18,30.02,10,10,10,14,5,18,0.00,1,,331